Location: Santa Cristina
(46.5667°N, 11.7167°E)
Time: 04:43:55
(UTC+00:00)

Cosmos 864 Rocket - Pass Details

Date: 21 April 2021
Orbit: 953 x 992 km, 82.9° (Epoch: 10 May)

Event Time Altitude Azimuth Distance (km) Brightness Sun altitude
Rises 00:56:50 0° 348° (NNW) 3,690 8.2 -27.0°
Reaches altitude 10° 00:59:23 10° 346° (NNW) 2,733 7.4 -26.8°
Maximum altitude 01:05:33 66° 266° (W) 1,055 4.4 -26.2°
Enters shadow 01:06:04 63° 240° (WSW) 1,074 4.4 -26.2°
